www.pogodaiklimat.ru

Погода и климат >> Архив погоды >> Эквадор >> Seymour


ПОГОДА в Seymour

  • Прогноз погоды в Seymour
  • Монитор погоды в Seymour
  • Климат города

АРХИВ ПОГОДЫ в Seymour

Время (UTC), дата Ветер
(напр.,м/с)
 
Видим.   Явления Облачность Т
(С)
Тd
(С)
f
(%)
Тe
(С)
Тes
(С)
Комфортность P
(гПа)
Po
(гПа)
Тmin
(С)
Tmax
(С)
R
(мм)
R24
(мм)
S
(см)
15 11.12 Ю 13 20 км мгла {туман} 8/4 600 м
[Sc Ac trans]
+26.2 +20.0 69 +32 +32 очень
душно
1014.0 1008.8
18 11.12 ЮВ 14 20 км мгла {туман} 1/1 600 м
[Sc]
+29.6 +19.9 56 +36 +36 очень
душно
1011.9 1006.7
21 11.12 СЗ 12 20 км мгла {туман} 1/1 600 м
[Sc]
+28.3 +20.7 63 +35 +35 очень
душно
1010.1 1004.9 +30.9
00 12.12 ЮВ 14 20 км мгла {туман} 1/1 600 м
[Sc]
+26.2 +19.2 65 +31 +31 очень
душно
1011.3 1006.1 +30.9
12 12.12 Ю 8 20 км мгла {туман} 9/9 600 м
[Sc]
+24.2 +19.5 75 +29 +29 душно 1012.7 1007.5 +23.3
15 12.12 З 6 20 км мгла {туман} 8/8 600 м
[Sc]
+25.5 +19.9 71 +31 +32 очень
душно
1013.7 1008.5
18 12.12 ЮВ 12 20 км мгла {туман} 9/6 600 м
[Sc Ac trans]
+28.2 +20.0 61 +34 +34 очень
душно
1012.4 1007.2
21 12.12 ЮВ 11 20 км мгла {туман} 9/8 600 м
[Sc Ac trans]
+26.9 +20.1 66 +33 +33 очень
душно
1010.8 1005.6 +29.0
00 13.12 СВ 4 20 км мгла {туман} 9/5 600 м
[Sc Ac trans]
+25.4 +20.2 73 +31 +31 очень
душно
1011.7 1006.4 +29.0
12 13.12 ЮВ 3 20 км мгла {туман} 9/9 600 м
[Sc]
+24.5 +20.0 76 +30 +30 очень
душно
1012.7 1007.5 +24.5
15 13.12 В 5 20 км мгла {туман} 8/3 600 м
[Sc Ac trans]
+26.0 +20.4 71 +32 +34 очень
душно
1014.2 1009.0
18 13.12 С 7 20 км мгла {туман} 3/3 600 м
[Sc]
+28.0 +20.0 62 +34 +38 очень
душно
1012.8 1007.6
21 13.12 СВ 7 20 км мгла {туман} 5/5 600 м
[Sc]
+27.2 +20.6 67 +34 +35 очень
душно
1010.5 1005.3 +28.7
12 14.12 В 3 20 км мгла {туман} 9/9 600 м
[Sc]
+24.6 +19.4 73 +30 +30 очень
душно
1013.1 1007.5 +24.6
15 14.12 З 4 20 км мгла {туман} 9/9 600 м
[Sc]
+25.8 +20.2 71 +32 +32 очень
душно
1014.2 1008.9
18 14.12 В 7 20 км мгла {туман} 8/8 600 м
[Sc]
+27.6 +20.3 64 +34 +35 очень
душно
1013.0 1007.8
21 14.12 В 15 20 км мгла {туман} 1/1 600 м
[Sc]
+28.4 +20.1 61 +35 +35 очень
душно
1010.6 1005.4 +29.5
12 15.12 ЮВ 12 20 км мгла {туман} 8/8 600 м
[Sc]
+24.0 +20.0 78 +29 +29 душно 1012.0 1006.7 +24.0
18 15.12 ЮВ 14 20 км мгла {туман} 3/3 600 м
[Sc]
+30.2 +20.0 54 +36 +36 очень
душно
1011.6 1006.4
21 15.12 ЮВ 14 20 км мгла {туман} 8/8 600 м
[Sc]
+27.6 +20.8 66 +34 +34 очень
душно
1009.5 1004.3 +30.3
12 16.12 Ю 12 20 км мгла {туман} 9/9 600 м
[Sc]
+24.6 +21.0 80 +31 +31 очень
душно
1011.9 1006.7 +24.5
15 16.12 ЮВ 14 20 км мгла {туман} 9/6 600 м
[Sc Ac trans]
+27.9 +21.1 67 +35 +35 очень
душно
1013.6 1008.4
18 16.12 ЮВ 16 20 км мгла {туман} 5/4 600 м
[Sc Ac trans]
+30.2 +21.3 59 +38 +38 очень
душно
1012.0 1006.8
21 16.12 ЮВ 15 20 км мгла {туман} 9/5 600 м
[Sc Ac trans]
+28.4 +21.0 64 +36 +36 очень
душно
1009.8 1004.6 +30.8
00 17.12 ЮВ 13 20 км мгла {туман} 9/9 600 м
[Sc]
+26.6 +21.2 72 +34 +34 очень
душно
1011.0 1005.8 +30.8
12 17.12 Ю 13 20 км мгла {туман} 9/3 600 м
[Sc Cc]
+24.4 +20.7 80 +30 +30 очень
душно
1012.4 1007.2 +24.4
18 17.12 ЮВ 11 20 км мгла {туман} 1/1 600 м
[Sc]
+30.9 +21.1 56 +38 +39 очень
душно
1012.4 1007.1
21 17.12 ЮВ 12 20 км мгла {туман} 1/1 600 м
[Sc]
+30.2 +20.3 55 +37 +37 очень
душно
1009.6 1004.4 +31.3

 

Местоположение метеостанции Seymour (Эквадор): широта -0.45 долгота -90.26 высота над уровнем моря 16 м.

В архиве по умолчанию представлена погода в Seymour за последнюю неделю. Архивные данные за месяц целиком и за предыдущие месяцы, начиная с января 2011 года, Вы можете получить, выбрав интересующий диапазон дат из раскрывающегося списка и нажав кнопку "Ввод!".


*Определитесь, кто Вы:
робот инопланетянин человек

Внимание! Время в таблицах - всемирное. Для получения местного времени необходимо прибавить поправку, которая в Seymour равна -5 ч.

Смотрите также архив погоды в соседних городах и на ближайших метеорологических станциях:

Погода в San Cristobal Aeropuerto (Эквадор) (87 км)
Погода в San Cristobal (Эквадор) (89 км)
Погода в Puerto Villamil (Эквадор) (110 км)
Погода в Salinas (Эквадор) (1050 км)
Погода в Manta (Эквадор) (1067 км)
Погода в Portoviejo Aeropuerto (Эквадор) (1091 км)
Погода в Portoviejo (Эквадор) (1095 км)
Погода в Bahia De Caraquez (Эквадор) (1097 км)
Погода в Talara (Перу) (1103 км)
Погода в Tumbes (Перу) (1149 км)

Пояснения к столбцам:

Ветер - указаны скорость ветра в м/с - средняя за 10 мин, порывы в срок и между сроками (в фигурных скобках) и направление, откуда дует ветер: С - северный, СВ - северо-восточный, В - восточный, ЮВ - юго-восточный, Ю - южный, ЮЗ - юго-западный, З - западный, СЗ - северо-западный.
Видимость - горизонтальная дальность видимости в метрах или километрах. При видимости от 1 до 10 км при отсутствии осадков обычно наблюдается дымка, при ухудшении видимости до 1 км и менее - туман. В сухую погоду видимость может ухудшаться дымом, пылью или мглою.
Явления - указаны атмосферные явления, наблюдавшиеся в срок или в последний час перед сроком; фигурными скобками обозначены явления, наблюдавшиеся между сроками (за 1-3 часа до срока); квадратными скобками обозначены град или гололедные отложения с указанием их диаметра в мм.
Облачность - указаны через наклонную черту общая и нижняя облачность в баллах и высота нижней границы облаков в метрах; квадратными скобками обозначены формы облаков: Ci - перистые, Cs - перисто-слоистые, Cc - перисто-кучевые, Ac - высококучевые, As - высокослоистые, Sc - слоисто-кучевые, Ns - слоисто-дождевые, Cu - кучевые, Cb - кучево-дождевые. Подробнее классификацию облаков см. в Атласе облаков (PDF).
T - Температура воздуха - температура, измеренная на высоте 2 м над землей.
Td - Температура точки росы - температура, при понижении до которой содержащийся в воздухе водяной пар достигнет насыщения.
f - Относительная влажность воздуха - влажноcть воздуха, измеренная на высоте 2 м над землей.
Te - Эффективная температура - температура, которую ощущает одетый по сезону человек в тени. Характеристика душности погоды. При расчете учитывается влияние влажности воздуха и скорости ветра на теплоощущения человека.
Tes - Эффективная температура на солнце - температура, которую ощущает человек, с поправкой на солнечный нагрев. Характеристика знойности погоды. Зависит от высоты солнца над горизонтом, облачности и скорости ветра. Ночью, в пасмурную погоду, а также при ветре 12 м/с и более поправка равна нулю.
P - Атмосферное давление - приведенное к уровню моря атмосферное давление.
Po - Атмосферное давление - измеренное на уровне метеостанции атмосферное давление.
Tmin - Минимальная температура - минимум температуры воздуха на высоте 2 м над землей.
Tmax - Максимальная температура - максимум температуры воздуха на высоте 2 м над землей.
R - Количество осадков - Количество выпавших осадков за период времени, мм. При наведении курсора мыши на число - период времени, за который выпало указанное количество осадков.
R24 - Количество осадков - Количество выпавших осадков за 24 часа, мм.
S - Снежный покров - Высота снежного покрова, см. При наведении курсора мыши на число - состояние снежного покрова и степень покрытия местности в баллах.